Location: Ch?enovice
(49.7164°N, 15.2160°E)
Time: 21:58:33
(UTC+00:00)

IRAS Rocket - Pass Details

Date: 23 May 2024
Orbit: 846 x 877 km, 100.1° (Epoch: 20 June)

Event Time Altitude Azimuth Distance (km) Brightness Sun altitude
Rises 02:14:18 0° 15° (NNE) 3,440 8.5 -7.1°
Reaches altitude 10° 02:16:41 10° 13° (NNE) 2,495 7.7 -6.8°
Maximum altitude 02:22:11 71° 291° (WNW) 901 4.3 -6.1°
Drops below altitude 10° 02:27:37 10° 209° (SSW) 2,465 6.0 -5.5°
Enters shadow 02:28:57 - 207° (SSW) 2,994 6.5 -5.3°
